Location: Six Mile Lake
(44.9000°N, 79.7170°W)
Time: 13:36:44
(UTC-04:00)

O/OREOS (USA 219) - Pass Details

Date: 30 June 2022
Orbit: 621 x 646 km, 72.0° (Epoch: 22 May)

Event Time Altitude Azimuth Distance (km) Brightness Sun altitude
Rises 02:53:46 0° 325° (NW) 2,963 ? -18.8°
Reaches altitude 10° 02:56:19 10° 313° (NW) 2,050 ? -18.6°
Maximum altitude 03:00:09 27° 257° (WSW) 1,257 ? -18.4°
Enters shadow 03:00:25 26° 251° (WSW) 1,261 ? -18.4°
